Home > Weather > Denver > Past weeks

Flag for U.S.A. Weather for the Past 2 Weeks in Denver, Colorado, U.S.A.

Now
30 °F

Passing clouds.


Feels Like: 21 °F
Forecast: 28 / 52 °F
Wind: 12 mph from South

Location: Buckley Air Force Base

Current Time: Feb 9, 2016 at 7:44:41 AM

Latest Report: Feb 9, 2016 at 6:58 AM


Visibility: 10 mi

Pressure: 30.35 "Hg (24.85 "Hg at 1593m altitude)

Humidity: 56%

Dew point: 16 °F

Location of DenverLocation

Historic Weather in Denver — Graph

°F

Denver Temperature Yesterday

Maximum temperature yesterday: 41 °F (at 2:58 PM)
Minimum temperature yesterday: 18 °F (at 3:58 AM)
Average temperature yesterday: 31 °F

High & Low Weather Summary for the Past Weeks

 TemperatureHumidityPressure
High62 °F (Jan 30, 12:58 PM)100% (Jan 30, 7:01 PM)30.50 "Hg (Jan 30, 7:01 PM)
Low6 °F (Feb 3, 10:58 PM)18% (Jan 29, 2:58 PM)29.33 "Hg (Jan 30, 1:58 PM)
Average30 °F62%30.08 "Hg
* Reported Jan 25 5:58 AM — Feb 9 5:58 AM, Denver, Weather by CustomWeather, © 2016

Note: Actual official high and low records may vary slightly from our data, if they occured in-between our weather recording intervals... More about our weather records

Advertising

Denver Weather History for the Previous 24 Hours

 ConditionsComfort  
Time TempWeatherWind HumidityBarometerVisibility
5:58 AM
Tue, Feb 9
30 °FPassing clouds.13 mph60%30.34 "Hg10 mi
4:58 AM29 °FPassing clouds.12 mph65%30.31 "Hg10 mi
3:58 AM31 °FPassing clouds.10 mph71%30.30 "Hg10 mi
2:58 AM31 °FPassing clouds.12 mph75%30.30 "Hg10 mi
1:58 AM30 °FPassing clouds.10 mph71%30.30 "Hg10 mi
12:58 AM30 °FPassing clouds.10 mph71%30.31 "Hg10 mi
11:58 PM
Mon, Feb 8
30 °FPassing clouds.10 mph72%30.32 "Hg10 mi
10:58 PM29 °FPassing clouds.12 mph78%30.34 "Hg10 mi
9:58 PM32 °FPassing clouds.10 mph73%30.34 "Hg10 mi
8:58 PM33 °FPassing clouds.10 mph73%30.38 "Hg10 mi
7:58 PM34 °FPassing clouds.10 mph68%30.38 "Hg10 mi
6:58 PM34 °FPassing clouds.8 mph64%30.41 "Hg10 mi
5:58 PM33 °FPassing clouds.10 mph68%30.43 "Hg10 mi
4:58 PM39 °FPartly sunny.7 mph61%30.39 "Hg10 mi
3:58 PM40 °FPartly sunny.7 mph55%30.39 "Hg10 mi
2:58 PM41 °FPartly sunny.7 mph51%30.39 "Hg10 mi
1:58 PM40 °FPartly sunny.9 mph49%30.39 "Hg10 mi
12:58 PM40 °FBroken clouds.5 mph48%30.41 "Hg10 mi
11:58 AM39 °FBroken clouds.5 mph49%30.44 "Hg10 mi
10:58 AM38 °FBroken clouds.3 mph47%30.46 "Hg10 mi
9:58 AM39 °FBroken clouds.No wind43%30.47 "Hg10 mi
8:58 AM33 °FBroken clouds.6 mph54%30.50 "Hg10 mi
7:58 AM31 °FBroken clouds.2 mph52%30.45 "Hg10 mi
Weather by CustomWeather, © 2016

See weather overviewHow to use our weather pages